[[{"header":{"parameterUnit":"m.s-1","parameterCategory":1,"la1":30.2991,"la2":30.254,"lo1":-89.0895,"lo2":-89.0444,"dy":0.0017,"dx":0.0017,"nx":28,"ny":28,"refTime":"2024-07-19T09:00:00:Z","depth":0,"parameterNumber":2,"parameterNumberName":"U-component_of_WINDS"},"data":[0,0,0,0,0,0,0,0,0,0,0,0,0,0,0,0,0,0,0,0,0,0,0,0,0,0,0,0,0,0,0,0,0,0,0,0,0,0,0,0,0,0,0,0,0,0,0,0,0,0,0,0,0,0,0,0,0,0,-0.4073,-0.4074,0,-0.4202,-0.4204,-0.4205,-0.4267,-0.4267,-0.4267,-0.4267,-0.4401,-0.4404,-0.4408,0,0,0,0,0,0,0,0,0,0,0,0,0,-0.3882,-0.3885,-0.4073,-0.4074,-0.4076,-0.4202,-0.4204,-0.4205,-0.4267,-0.4267,-0.4267,-0.4267,-0.4399,-0.4404,-0.4408,0,0,0,0,0,0,0,0,0,0,0,0,0,-0.3983,-0.3886,-0.4072,-0.4122,-0.4128,-0.4201,-0.4204,-0.4206,-0.4267,-0.4267,-0.4267,-0.4267,-0.4398,-0.4403,-0.4409,-0.4443,0,0,-0.4425,-0.4427,0,0,0,0,0,0,0,0,-0.3978,-0.399,-0.4113,-0.4119,-0.4125,-0.4218,-0.4185,-0.4285,-0.4267,-0.4214,-0.4267,-0.4267,-0.434,-0.435,-0.4375,-0.4449,-0.4455,-0.4426,-0.4429,-0.4431,-0.4433,0,0,0,0,0,0,0,-0.3971,-0.3985,-0.4124,-0.4115,-0.4122,-0.4139,-0.4153,-0.4205,-0.4276,-0.4219,-0.4224,-0.4238,-0.4344,-0.4369,-0.4378,-0.4457,-0.4425,-0.443,-0.4434,-0.4436,-0.457,-0.457,0,0,0,0,0,0,-0.3955,-0.3979,-0.412,-0.4128,-0.405,-0.4142,-0.4158,-0.4189,-0.4276,-0.4289,-0.4238,-0.4241,-0.436,-0.4372,-0.4383,-0.4431,-0.4431,-0.4436,-0.4439,-0.4569,-0.457,-0.457,0,0,0,0,0,0,-0.3951,-0.3967,-0.4115,-0.4055,-0.4075,-0.4145,-0.4179,-0.4191,-0.4217,-0.429,-0.4303,-0.4251,-0.4361,-0.4376,-0.4428,-0.4437,-0.4439,-0.4444,-0.4569,-0.4569,-0.457,-0.4526,0,0,0,0,0,0,-0.3945,-0.3965,-0.3978,-0.4055,-0.4078,-0.4157,-0.418,-0.4194,-0.4226,-0.4231,-0.4306,-0.4318,-0.4362,-0.442,-0.4434,-0.4444,-0.4448,-0.4568,-0.4569,-0.457,-0.4527,-0.4525,-0.4524,0,0,0,0,0,-0.3938,-0.3961,-0.3979,-0.3995,-0.4095,-0.4157,-0.417,-0.4219,-0.4226,-0.4241,-0.4288,-0.4316,-0.4433,-0.4425,-0.4441,-0.4453,-0.4568,-0.4569,-0.457,-0.4528,-0.4526,-0.4524,0,0,0,0,0,0,-0.3883,-0.3971,-0.3992,-0.404,-0.409,-0.4167,-0.4187,-0.4215,-0.4264,-0.4266,-0.4326,-0.4342,-0.439,-0.4427,-0.4416,-0.4493,-0.4504,-0.4508,-0.4467,-0.4465,-0.4463,-0.4454,-0.4452,0,0,0,0,0,-0.3877,-0.3919,-0.3994,-0.4028,-0.4053,-0.4115,-0.4144,-0.4177,-0.4232,-0.4254,-0.4305,-0.4358,-0.4407,-0.4438,-0.4487,-0.4533,-0.4551,-0.4549,-0.4547,-0.4546,-0.4549,-0.4578,-0.4579,-0.4572,-0.4572,-0.4572,0,0,-0.3864,-0.3917,-0.394,-0.4019,-0.4062,-0.4105,-0.4133,-0.4177,-0.421,-0.4261,-0.4314,-0.4353,-0.4416,-0.4466,-0.4491,-0.4499,-0.4555,-0.4546,-0.4544,-0.4549,-0.4579,-0.4579,-0.458,-0.4573,-0.4573,-0.4573,0,0,-0.3862,-0.3906,-0.3941,-0.3984,-0.4049,-0.4091,-0.4099,-0.4172,-0.42,-0.4255,-0.4294,-0.4335,-0.4417,-0.4461,-0.4494,-0.4512,-0.454,-0.4526,-0.4516,-0.4544,-0.4545,-0.4546,-0.4554,-0.4556,-0.4529,-0.4528,-0.4528,0,-0.3838,-0.3904,-0.3955,-0.3998,-0.4032,-0.4081,-0.4117,-0.4157,-0.4234,-0.4258,-0.4265,-0.4371,-0.4417,-0.4479,-0.4483,-0.4508,-0.4521,-0.4518,-0.454,-0.4542,-0.4543,-0.4552,-0.4554,-0.4526,-0.4527,-0.4527,-0.4527,0,-0.3872,-0.3917,-0.3937,-0.4012,-0.4049,-0.4088,-0.4146,-0.4178,-0.4208,-0.425,-0.4306,-0.4362,-0.4425,-0.4442,-0.4472,-0.4509,-0.4512,-0.4529,-0.4542,-0.4541,-0.455,-0.4553,-0.4524,-0.4524,-0.4525,-0.4525,0,0,-0.3838,-0.3942,-0.3949,-0.3984,-0.406,-0.4097,-0.4139,-0.42,-0.4227,-0.4279,-0.4317,-0.4387,-0.4404,-0.4441,-0.4477,-0.4501,-0.4514,-0.4516,-0.4519,-0.4515,-0.4561,-0.4549,-0.4551,-0.4533,-0.4534,-0.4534,-0.4556,0,-0.3849,-0.3926,-0.3975,-0.4033,-0.4077,-0.4125,-0.4162,-0.4213,-0.4253,-0.4297,-0.4342,-0.4391,-0.4409,-0.4432,-0.4458,-0.4507,-0.4524,-0.4506,-0.4571,-0.4572,-0.4554,-0.4556,-0.4542,-0.456,-0.456,-0.4561,-0.4561,0,-0.387,-0.3922,-0.3985,-0.4059,-0.4079,-0.4111,-0.4173,-0.4213,-0.4273,-0.4301,-0.4344,-0.438,-0.4429,-0.4437,-0.4505,-0.4491,-0.4521,-0.4549,-0.4551,-0.456,-0.4567,-0.4566,-0.4567,-0.457,-0.4567,-0.4566,-0.4566,0,-0.3842,-0.3927,-0.3977,-0.4005,-0.4092,-0.4114,-0.4151,-0.4211,-0.4245,-0.4299,-0.4322,-0.438,-0.4413,-0.4458,-0.451,-0.451,-0.4574,-0.4585,-0.4599,-0.4598,-0.4611,-0.461,-0.4618,-0.4628,-0.4628,-0.4627,-0.4627,0,-0.3849,-0.3886,-0.3966,-0.3996,-0.404,-0.4096,-0.4138,-0.4179,-0.4232,-0.4273,-0.4317,-0.4354,-0.442,-0.4466,-0.4506,-0.4558,-0.4572,-0.4597,-0.4608,-0.4594,-0.4591,-0.4615,-0.4615,-0.4628,-0.4628,-0.4628,-0.4628,0,-0.3825,-0.3879,-0.3936,-0.4014,-0.4035,-0.4063,-0.4131,-0.4163,-0.4206,-0.4256,-0.4272,-0.4339,-0.4396,-0.4452,-0.4527,-0.4555,-0.4606,-0.462,-0.4586,-0.4592,-0.4604,-0.4602,-0.4629,-0.4636,-0.4638,-0.4638,-0.4638,0,-0.3826,-0.3856,-0.3937,-0.3967,-0.4003,-0.4051,-0.4087,-0.4144,-0.4179,-0.4251,-0.4275,-0.4335,-0.4386,-0.4473,-0.453,-0.4589,-0.4605,-0.461,-0.4614,-0.46,-0.4607,-0.4605,-0.461,-0.4609,-0.4608,-0.4608,-0.4608,0,-0.3823,-0.3849,-0.3898,-0.3958,-0.3999,-0.4049,-0.41,-0.4122,-0.419,-0.4228,-0.4286,-0.4325,-0.4403,-0.4463,-0.4528,-0.4568,-0.46,-0.4606,-0.4613,-0.46,-0.4579,-0.4592,-0.4583,-0.4605,-0.4606,-0.4606,-0.4606,-0.4606,-0.3813,-0.3842,-0.3905,-0.3959,-0.4004,-0.4051,-0.4086,-0.4134,-0.4183,-0.4251,-0.4282,-0.4341,-0.4403,-0.4494,-0.4533,-0.4581,-0.459,-0.4599,-0.4601,-0.4603,-0.4601,-0.4571,-0.4593,-0.4593,-0.4594,-0.4594,-0.4594,0,-0.3814,-0.3857,-0.3906,-0.3977,-0.402,-0.4046,-0.4105,-0.4139,-0.4191,-0.4245,-0.4295,-0.4363,-0.4421,-0.4483,-0.4545,-0.4572,-0.4588,-0.4586,-0.4586,-0.4595,-0.4589,-0.4578,-0.4572,-0.4572,-0.4572,-0.4572,-0.4572,-0.4572,-0.3819,-0.3872,-0.3905,-0.3981,-0.4024,-0.4082,-0.4114,-0.4158,-0.4203,-0.4277,-0.4325,-0.4365,-0.4424,-0.4491,-0.4546,-0.4563,-0.4584,-0.4579,-0.46,-0.4593,-0.4595,-0.4596,-0.4586,-0.4582,-0.4582,-0.4602,-0.4602,-0.4602]},{"header":{"parameterUnit":"m.s-1","parameterCategory":1,"la1":30.2991,"la2":30.254,"lo1":-89.0895,"lo2":-89.0444,"dy":0.0017,"dx":0.0017,"nx":28,"ny":28,"refTime":"2024-07-19T09:00:00:Z","depth":0,"parameterNumber":3,"parameterNumberName":"V-component_of_WINDS"},"data":[0,0,0,0,0,0,0,0,0,0,0,0,0,0,0,0,0,0,0,0,0,0,0,0,0,0,0,0,0,0,0,0,0,0,0,0,0,0,0,0,0,0,0,0,0,0,0,0,0,0,0,0,0,0,0,0,0,0,4.5025,4.5026,0,4.5067,4.5068,4.5068,4.5062,4.5061,4.506,4.506,4.51,4.5101,4.5103,0,0,0,0,0,0,0,0,0,0,0,0,0,4.4935,4.4936,4.5025,4.5026,4.5026,4.5067,4.5068,4.5069,4.5062,4.5061,4.506,4.5059,4.5099,4.5101,4.5103,0,0,0,0,0,0,0,0,0,0,0,0,0,4.4975,4.4937,4.5025,4.5028,4.5029,4.5067,4.5068,4.5069,4.5062,4.5061,4.506,4.5059,4.5098,4.5101,4.5103,4.5141,0,0,4.5111,4.5112,0,0,0,0,0,0,0,0,4.4973,4.4978,4.5027,4.5028,4.5029,4.5058,4.5051,4.5093,4.5062,4.5049,4.506,4.5059,4.5087,4.509,4.51,4.5142,4.5144,4.5112,4.5113,4.5114,4.5115,0,0,0,0,0,0,0,4.497,4.4977,4.5042,4.5028,4.5029,4.5026,4.503,4.5059,4.5073,4.505,4.505,4.5055,4.5087,4.5098,4.5101,4.5145,4.5111,4.5114,4.5115,4.5116,4.5219,4.522,0,0,0,0,0,0,4.4967,4.4974,4.504,4.5043,4.4998,4.5028,4.5033,4.505,4.5073,4.5076,4.5056,4.5055,4.5094,4.5098,4.5102,4.5147,4.5114,4.5117,4.5118,4.5217,4.5219,4.522,0,0,0,0,0,0,4.4965,4.4973,4.5039,4.5009,4.5017,4.5031,4.5049,4.5051,4.5062,4.5077,4.508,4.5065,4.5093,4.5099,4.5131,4.5148,4.5118,4.512,4.5216,4.5218,4.5219,4.5236,0,0,0,0,0,0,4.4962,4.4972,4.4988,4.5009,4.5018,4.5068,4.5051,4.5053,4.5067,4.5066,4.5086,4.5088,4.5093,4.5127,4.5134,4.5151,4.5122,4.5215,4.5217,4.5219,4.5234,4.5238,4.5242,0,0,0,0,0,4.4959,4.499,4.4988,4.4996,4.5038,4.5069,4.5074,4.5079,4.5069,4.5083,4.5093,4.5088,4.5145,4.5131,4.5138,4.5156,4.5213,4.5216,4.5219,4.5232,4.5237,4.5242,0,0,0,0,0,0,4.4969,4.4993,4.4991,4.503,4.5048,4.5068,4.5087,4.5085,4.5105,4.5103,4.5107,4.5112,4.5144,4.5154,4.5137,4.5193,4.5178,4.5182,4.5186,4.5191,4.5194,4.5191,4.5124,0,0,0,0,0,4.4976,4.5,4.5019,4.5052,4.5061,4.5072,4.5086,4.5089,4.5106,4.5113,4.5125,4.5142,4.5163,4.5178,4.5198,4.5236,4.5239,4.5252,4.5255,4.5259,4.5262,4.5281,4.5286,4.5229,4.5229,4.5229,0,0,4.499,4.5006,4.5021,4.5054,4.5068,4.5092,4.5078,4.5104,4.5122,4.5117,4.5148,4.5158,4.5176,4.5211,4.5227,4.522,4.5279,4.5262,4.5264,4.5266,4.5284,4.529,4.5295,4.523,4.523,4.523,0,0,4.5027,4.5043,4.5071,4.5085,4.5107,4.5114,4.5121,4.5142,4.5148,4.518,4.5176,4.5196,4.5234,4.5247,4.5259,4.5301,4.5297,4.5308,4.5327,4.5346,4.535,4.5354,4.5369,4.5374,4.5311,4.5311,4.5311,0,4.5041,4.5079,4.5085,4.5112,4.5126,4.5124,4.5151,4.5165,4.5191,4.5201,4.5192,4.5239,4.5252,4.5289,4.5299,4.5309,4.5316,4.5305,4.535,4.5354,4.5357,4.5371,4.5376,4.5312,4.5312,4.5312,4.5312,0,4.5095,4.512,4.514,4.5167,4.5184,4.5211,4.522,4.5236,4.5237,4.5245,4.5276,4.5291,4.5315,4.5324,4.5325,4.5361,4.5356,4.5349,4.5333,4.5364,4.5377,4.5382,4.5314,4.5313,4.5313,4.5313,0,0,4.5139,4.517,4.5177,4.5189,4.5212,4.5232,4.5258,4.5282,4.5295,4.5313,4.5334,4.5366,4.5359,4.5373,4.5375,4.5392,4.5423,4.5382,4.5383,4.5388,4.5462,4.5467,4.5473,4.542,4.5421,4.5422,4.546,0,4.5178,4.5226,4.5233,4.5274,4.5297,4.5295,4.5318,4.5334,4.5342,4.5362,4.537,4.5392,4.5382,4.539,4.5407,4.5416,4.5437,4.5413,4.5439,4.544,4.5433,4.548,4.5485,4.552,4.5465,4.5466,4.5467,0,4.523,4.5251,4.5296,4.5315,4.5325,4.5346,4.5368,4.5387,4.5405,4.5409,4.5424,4.5424,4.545,4.5434,4.5469,4.5452,4.5463,4.5469,4.5471,4.5472,4.5455,4.5482,4.5532,4.5537,4.5475,4.5474,4.5474,0,4.5257,4.5296,4.5328,4.5338,4.5362,4.5377,4.5387,4.5404,4.5418,4.5437,4.5445,4.5467,4.5478,4.5494,4.5499,4.5488,4.5534,4.5519,4.5537,4.5537,4.5546,4.5545,4.5597,4.5555,4.5554,4.5554,4.5554,0,4.53,4.5326,4.534,4.5359,4.5389,4.5396,4.5424,4.5434,4.5449,4.5469,4.5468,4.5487,4.5493,4.5513,4.5517,4.5544,4.555,4.5553,4.5554,4.5553,4.5552,4.5559,4.5557,4.5556,4.5555,4.5555,4.5555,0,4.5334,4.5345,4.5379,4.5399,4.5405,4.5426,4.5442,4.546,4.5468,4.5493,4.5499,4.5511,4.5534,4.5541,4.5568,4.5571,4.5603,4.5602,4.5597,4.5597,4.5614,4.5612,4.5672,4.568,4.5633,4.5633,4.5634,0,4.536,4.5381,4.5404,4.5418,4.5429,4.5452,4.5466,4.5473,4.5488,4.5509,4.5524,4.5547,4.5565,4.5601,4.5611,4.5632,4.563,4.565,4.5633,4.5631,4.5629,4.5628,4.5629,4.5653,4.5653,4.5654,4.5654,0,4.5405,4.5409,4.5431,4.5454,4.5471,4.5489,4.5507,4.5518,4.5527,4.5543,4.5567,4.5581,4.5609,4.5631,4.5652,4.5661,4.5659,4.5659,4.5664,4.5663,4.5659,4.5661,4.5604,4.5658,4.5657,4.5657,4.5657,4.5657,4.5436,4.5454,4.5473,4.5496,4.551,4.5527,4.5544,4.5555,4.5575,4.5599,4.5601,4.5626,4.5643,4.5671,4.5681,4.57,4.5694,4.5702,4.5703,4.5705,4.5706,4.5657,4.5704,4.5703,4.5703,4.5703,4.5703,0,4.548,4.5492,4.5514,4.5538,4.5557,4.5554,4.5573,4.5588,4.5611,4.5627,4.5645,4.5671,4.5693,4.5705,4.5726,4.5738,4.5738,4.5743,4.5742,4.5744,4.571,4.5703,4.5744,4.5744,4.5744,4.5744,4.5744,4.5744,4.5505,4.5535,4.5541,4.5578,4.5589,4.5615,4.5626,4.564,4.5653,4.5683,4.5701,4.5709,4.5723,4.5745,4.5764,4.5767,4.5774,4.5781,4.5783,4.5751,4.5746,4.5742,4.5736,4.5782,4.5782,4.5814,4.5815,4.5815]}]]